Regional Weather Roundup
Issued by NWS Cleveland, OH

Home | Current Version | Previous Version | Graphics & Text | Print | Product List | Glossary On
Versions: 1 2 3 4 5 6 7 8 9 10 11 12 13 14 15 16 17 18 19 20 21 22 23 24 25 26 27 28 29 30 31 32 33 34 35 36 37 38 39 40 41 42 43 44 45 46 47 48 49 50
000
ASUS41 KCLE 060000
RWRCLE
OHIO REGIONAL WEATHER ROUNDUP
NATIONAL WEATHER SERVICE WILMINGTON, OH
700 PM EST THU MAR 05 2015

NOTE: "FAIR" INDICATES FEW OR NO CLOUDS BELOW 12,000 FEET WITH NO
SIGNIFICANT WEATHER AND/OR OBSTRUCTIONS TO VISIBILITY.

OHZ001>008-015>018-024>027-034-035-043-044-060100-
   NORTHWEST OHIO

CITY           SKY/WX    TMP DP  RH WIND       PRES   REMARKS
DEFIANCE       PTCLDY    17   2  51 CALM      30.48R
FINDLAY        CLEAR     17   3  54 CALM      30.47R
TOLEDO EXPRESS CLEAR     14   0  53 W5        30.48R WCI   6
TOLEDO EXEC    CLEAR     15   1  53 W6        30.49R WCI   6
LIMA           CLEAR     16   5  62 NW9       30.47R WCI   4
$$

OHZ009>014-019>023-028>033-038-089-060100-
   NORTHEAST OHIO

CITY           SKY/WX    TMP DP  RH WIND       PRES   REMARKS
CLE-HOPKINS    PTCLDY    12   0  58 W3        30.49R
CLE-LAKEFRONT  MOCLDY    13   3  64 W6        30.48R WCI   4
CUY CO. ARPT   MOCLDY    12   1  62 NW6       30.46R WCI   3
LORAIN-ELYRIA  CLEAR     11   0  61 W3        30.47R
ASHTABULA      MOCLDY     9  -1  64 NW6       30.45R WCI  -1
AKRON-CANTON   PTCLDY    11  -1  58 NW10      30.42R WCI  -3
WOOSTER        NOT AVBL
MANSFIELD      CLOUDY    12   2  64 W3        30.43R
YOUNGSTOWN     PTCLDY     8  -2  63 NW9       30.41R WCI  -5
$$

OHZ042-051>053-060>062-070>072-077>081-060100-
  SOUTHWEST OHIO

CITY           SKY/WX    TMP DP  RH WIND       PRES   REMARKS
CINC-COVINGTON PTCLDY    19   5  54 N8        30.47R WCI   9
CINC-LUNKEN    CLEAR     20   4  50 N7        30.52R WCI  11
HAMILTON       PTCLDY    20   5  52 N5        30.51R WCI  13
DAYTON         NOT AVBL
WRIGHT-PAT AFB NOT AVBL
DAYTON GENERAL CLEAR     18   4  54 N9        30.47R WCI   7
WILMINGTON     CLEAR     16   1  51 N9        30.46R WCI   4
$$

OHZ036-037-039>041-045>050-054>059-063>069-073>076-082>088-060100-
  CENTRAL AND SOUTHEAST OHIO

CITY           SKY/WX    TMP DP  RH WIND       PRES   REMARKS
COLUMBUS       MOCLDY    17   4  56 N10       30.48R WCI   5
OSU AIRPORT    PTCLDY    16   1  51 N12       30.47R WCI   3
BOLTON FIELD   MOCLDY   N/A N/A N/A N9        30.48R
RICKENBACK AFB PTCLDY    17   4  57 N10       30.48R WCI   5
NEWARK         CLOUDY    17   6  62 NW8       30.46R WCI   7
MARION         CLEAR     13   1  59 NW6       30.47R WCI   4
LANCASTER      PTCLDY    14   4  64 N7        30.47R WCI   4
ZANESVILLE     CLOUDY    18   3  52 N9        30.44R WCI   7
NEW PHILLY     CLEAR     16   2  54 NW10      30.45R WCI   4
$$


USA.gov is the U.S. government's official web portal to all federal, state and local government web resources and services.